Regional Weather Roundup
Issued by NWS Northern Indiana

Home | Current Version | Previous Version | Graphics & Text | Print | Product List | Glossary On
Versions: 1 2 3 4 5 6 7 8 9 10 11 12 13 14 15 16 17 18 19 20 21 22 23 24 25 26 27 28 29 30 31 32 33 34 35 36 37 38 39 40 41 42 43 44 45 46 47 48 49 50
000
ASUS43 KIWX 251400
RWRIWX

KIWX WEATHER ROUNDUP
NATIONAL WEATHER SERVICE NORTHERN INDIANA
1000 AM EDT SUN SEP 25 2016

NOTE: "FAIR" INDICATES FEW OR NO CLOUDS BELOW 12,000 FEET WITH NO
SIGNIFICANT WEATHER AND/OR OBSTRUCTIONS TO VISIBILITY.

* THESE STATIONS ARE NOT UNDER NWS QUALITY CONTROL. THEY ALSO MAY NOT
  REPORT WEATHER SUCH AS PRECIPITATION OR FOG.

INZ001>027-251500-
NORTHERN INDIANA

CITY           SKY/WX    TMP DP  RH WIND       PRES   REMARKS
GARY*          MOSUNNY   66  55  68 S14       30.11S
SOUTH BEND     CLOUDY    62  52  69 SE12      30.15F
ELKHART*       SUNNY    N/A N/A N/A E7        30.16S
GOSHEN         CLOUDY    64  44  48 SE6       30.16S
ANGOLA*          N/A     63  54  72 SE7       30.17S
FORT WAYNE     MOSUNNY   63  53  70 NE3       30.17S
PERU/GRISSOM   SUNNY     65  56  73 SE6       30.13S

$$
INZ028>050-251500-
CENTRAL INDIANA

CITY           SKY/WX    TMP DP  RH WIND       PRES   REMARKS
LAFAYETTE      SUNNY     66  61  84 SE5       30.11F
MUNCIE*        SUNNY     68  57  68 S6        30.15S
INDIANAPOLIS   SUNNY     68  61  78 SE6       30.13S

$$
MIZ043>046-050>051-056>058-064>065-071>073-077>080-251500-
SOUTHWEST LOWER MICHIGAN

CITY           SKY/WX    TMP DP  RH WIND       PRES   REMARKS
BATTLE CREEK   CLOUDY    61  52  72 SE6       30.18F
BENTON HARBOR  PTSUNNY   63  53  70 SE14      30.13F
COLDWATER*     SUNNY     62  44  52 SE10      30.18S
HILLSDALE*     HAZE      63  43  48 SE8       30.19R VSB 1
HOLLAND        CLOUDY    60  54  80 SE8       30.15F
GRAND RAPIDS   PTSUNNY   59  51  75 SE9       30.17F
KALAMAZOO      CLOUDY    60  50  69 SE6       30.18F
STURGIS*       CLOUDY    63  48  59 SE8       30.16F
THREE RIVERS*  CLOUDY    62  52  70 CALM      30.18R

$$
OHZ001>008-015>018-024>025-251500-
NORTHWEST OHIO

CITY           SKY/WX    TMP DP  RH WIND       PRES   REMARKS
DEFIANCE       SUNNY     61  51  70 E6        30.18F
FINDLAY        SUNNY     61  49  64 E3        30.17F
TOLEDO EXPRESS SUNNY     60  51  72 VRB3      30.19S
TOLEDO METCALF SUNNY     61  52  72 E6        30.20F
LIMA           SUNNY     63  53  70 SE6       30.17F

$$
AND FOR LAKE MICHIGAN COASTAL AND OPEN LAKE BUOY OBSERVATIONS

STATION/POSITION TEMP    WIND        PRES    VSBY  WAVE
                 AIR SEA DIR/SP/G                  HT/PER
                 (F)     (DEG/KT/KT) (MB)    (MI)  (FT/S)
CALUMET HARBOR    65     150/  7/ 10 1018.9R
MICHIGAN CITY     63     130/ 14/ 17   N/A
BURNS HARBOR      66     160/ 10/ 16 1019.6F
SAINT JOSEPH      61     240/  2/  5 1020.7
SOUTH LAKE BUOY   67 72  140/ 17/ 21 1018.9          4/ 5
4 MI NW BRIDGMAN  63 68  110/ 14/ 19 1020.0F         2/ 2
MICHIGAN CITY     64 68  150/ 12/ 16   N/A           1/ 2

$$
&&




USA.gov is the U.S. government's official web portal to all federal, state and local government web resources and services.